User: anonymous   Login
Location: Vancouver
(49.2500°N, 123.1330°W)
Time: 11:05:59
(UTC-08:00)
Language:

BREEZE-M DEB (TANK) - Orbit

View from above orbital plane
View from above orbital plane
View from above satellite
View from above satellite

Ground track
Ground track

The orbit data is extracted from the following two-line orbital elements,

1 27821U 03024B   17344.57162762 +.00003043 +00000-0 +33274-3 0  9996
2 27821 049.5680 115.3934 4926774 164.7341 218.3573 05.77266257290619
Epoch (UTC): 10 December 2017 13:43:08
Eccentricity: 0.4926774
inclination: 49.5680°
perigee height: 281 km
apogee height: 13215 km
right ascension of ascending node: 115.3934°
argument of perigee: 164.7341°
revolutions per day: 5.77266257
mean anomaly at epoch: 218.3573°
orbit number at epoch: 29061

The dashed part of the orbit path shows where the satellite is in the earth's shadow,  

DLR